SCP
0 0 0 0 0 -0 -0 0 -0 0 0 -0 0 0 0 0 0 -0 -0 -0 -0 -0 -0 -0 -0 -0 0 0 0 -0 -0 -0 0 0 -0 -0 -0 -0 -0 -0 -0 -0 -0
0 0 0 0 0 -0 0 0 0 0 0 0 0 0 0 0 0 -0 -0 -0 -0 -0 -0 -0 -0 -0 0 0 -0 -0 -0 -0 -0 -0 -0 -0 -0 -0 -0 -0 -0 -0 -0
0 0 0 0 0 0 0 0 -0 0 0 0 0 0 -0 -0 0 -0 -0 -0 -0 -0 -0 -0 0 0 0 0 0 0 -0 -0 -0 -0 -0 0 0 -0 -0 -0 -0 -0 -0
0 0 0 0 0 0 -0 0 0 0 0 0 0 0 -0 -0 -0 -0 0 0 -0 0 0 -0 0 0 0 -0 0 0 0 -0 -0 -0 -0 0 0 0 -0 -0 -0 -0 -0
-0 -0 0 0 0 0 -0 0 0 0 0 0 -0 -0 -0 -0 -0 -0 -0 -0 -0 0 0 0 0 0 0 0 0 0 0 -0 -0 0 0 0 0 0 -0 -0 -0 -0 -0
0 0 0 -0 -0 -0 -0 0 -0 -0 0 -0 -0 -0 -0 -0 -0 -0 -0 -0 -0 0 0 0 0 0 0 0 0 0 0 -0 -0 0 -0 -0 0 -0 -0 -0 -0 -0 -0
0 0 0 0 -0 -0 -0 -0 -0 -0 -0 -0 -0 0 -0 0 -0 -0 0 0 0 0 0 0 0 0 0 0 0 -0 0 -0 -0 0 -0 -0 -0 0 -0 -0 -0 -0 -0
0 0 0 -0 -0 -0 -0 -0 0 0 -0 -0 -0 0 0 0 -0 -0 0 0 0 0 -0 -0 -0 0 0 0 0 0 0 -0 -0 -0 -0 -0 -0 0 -0 -0 -0 -0 -0
0 0 0 0 0 -0 0 0 -0 0 0 -0 -0 0 -0 0 0 0 0 0 0 0 0 -0 -0 -0 0 0 0 0 0 -0 -0 -0 0 -0 0 -0 -0 -0 -0 -0 -0
0 0 0 0 0 0 0 -0 -0 -0 -0 -0 -0 -0 -0 0 0 0 0 0 0 0 0 -0 -0 -0 0 0 0 -0 -0 -0 -0 -0 -0 -0 -0 -0 -0 -0 -0 -0 -0
0 0 0 0 0 0 -0 0 -0 -0 -0 -0 -0 0 0 -0 0 0 0 -0 -0 0 0 -0 0 0 0 0 0 -0 0 -0 -0 -0 -0 -0 -0 -0 -0 -0 -0 -0 -0
0 -0 -0 -0 -0 -0 0 0 0 -0 -0 -0 0 -0 -0 0 -0 0 0 -0 -0 -0 -0 0 0 0 0 -0 -0 -0 -0 0 0 -0 -0 -0 -0 -0 -0 -0 -0 -0 -0
-0 0 0 0 0 -0 0 -0 -0 0 -0 0 -0 -0 -0 0 0 -0 0 0 -0 0 -0 0 -0 -0 -0 0 -0 -0 0 -0 0 -0 0 -0 -0 -0 -0 -0 -0 -0 -0
-0 0 0 0 0 0 0 0 0 -0 -0 -0 -0 -0 -0 -0 0 -0 0 0 0 -0 -0 -0 0 0 0 -0 -0 0 -0 -0 0 -0 -0 -0 -0 -0 -0 -0 -0 -0 -0
-0 -0 0 -0 0 -0 0 -0 -0 -0 -0 -0 -0 -0 -0 -0 0 0 0 0 -0 0 -0 -0 0 0 0 0 0 -0 0 -0 0 0 0 -0 -0 -0 -0 -0 -0 -0 -0
-0 -0 -0 -0 0 -0 -0 -0 0 -0 0 -0 -0 -0 0 -0 0 0 0 0 0 -0 0 -0 0 0 0 0 0 0 -0 0 -0 -0 0 0 -0 -0 -0 -0 -0 -0 -0
-0 -0 -0 -0 -0 -0 -0 -0 -0 0 0 -0 -0 -0 -0 0 0 0 0 0 -0 0 0 0 0 0 0 0 0 0 0 0 0 0 0 0 0 -0 -0 0 0 -0 -0
-0 -0 -0 -0 -0 -0 -0 -0 -0 0 0 0 -0 0 -0 -0 0 0 -0 0 0 0 0 0 0 0 0 0 0 0 0 0 0 -0 -0 0 0 0 -0 -0 -0 -0 -0
-0 -0 -0 -0 -0 -0 -0 -0 -0 -0 -0 -0 -0 -0 -0 -0 0 0 -0 -0 0 0 -0 -0 0 0 0 0 0 0 0 0 0 0 0 -0 -0 0 0 -0 -0 -0 -0
-0 -0 -0 -0 -0 -0 -0 0 0 -0 -0 -0 -0 0 -0 0 -0 0 -0 -0 -0 -0 -0 0 0 0 0 0 0 0 -0 0 0 0 -0 0 0 0 0 0 0 -0 -0
-0 -0 -0 -0 -0 -0 -0 0 0 0 -0 -0 0 0 0 0 0 0 -0 -0 0 0 0 0 0 0 0 -0 0 0 0 0 0 0 -0 0 0 0 0 0 0 0 0
-0 -0 0 -0 -0 0 0 0 0 -0 -0 -0 -0 -0 0 0 0 -0 0 -0 -0 0 0 0 0 0 0 0 0 0 0 -0 -0 0 -0 0 0 0 0 0 0 0 0
-0 -0 -0 -0 0 0 0 0 0 0 0 0 0 0 0 -0 0 -0 -0 -0 -0 -0 -0 -0 -0 0 -0 -0 0 0 0 0 -0 -0 0 0 0 0 0 0 0 0 0
-0 -0 -0 -0 -0 0 0 0 0 0 0 0 0 0 0 -0 -0 -0 -0 -0 -0 -0 -0 0 0 0 0 0 -0 0 0 0 0 0 0 -0 0 0 0 0 0 0 0
-1 -0 -0 -1 -0 -0 0 0 0 0 0 0 0 0 0 -0 -0 -0 -0 -0 -0 0 0 0 0 0 0 0 0 0 0 0 0 0 0 0 0 0 0 0 0 0 0
-1 -1 -1 -1 -1 -0 0 0 -0 -0 -0 0 0 0 0 -0 -0 -0 -0 -0 -0 0 0 0 0 0 0 0 0 0 0 0 0 0 0 0 0 0 0 0 0 0 0
Wind_Speed_500mb
34 33 35 35 33 38 42 41 41 41 42 39 42 39 36 35 32 29 25 20 17 18 15 12 12 16 15 15 19 22 23 30 34 32 31 32 33 36 36 27 28 32 32
35 32 33 36 35 38 41 40 41 37 38 36 34 30 27 27 24 23 17 14 14 16 12 11 10 13 14 19 24 24 25 29 29 28 26 26 27 25 31 29 26 31 32
33 36 33 35 34 35 34 34 33 30 28 26 24 23 23 21 18 16 12 13 11 10 6 9 10 12 18 25 26 28 28 22 23 28 25 22 21 21 26 19 23 29 30
37 35 33 35 33 36 34 31 28 25 22 18 19 19 19 17 17 17 16 11 8 7 6 10 12 16 20 24 29 30 29 24 25 21 22 18 21 17 16 17 25 27 28
32 32 34 36 35 34 29 24 22 21 18 16 15 15 15 15 15 15 14 9 7 10 14 16 18 19 22 26 28 27 27 17 16 14 21 17 14 19 18 21 27 27 26
34 33 39 37 33 30 27 23 19 16 15 14 15 15 18 16 14 14 10 8 10 13 15 17 20 20 22 25 27 30 24 10 22 2 23 40 17 17 22 23 22 24 25
28 29 34 37 32 28 26 20 17 15 14 14 15 17 17 15 12 11 12 13 14 13 16 15 18 19 19 22 24 30 23 8 16 30 30 26 17 15 16 20 23 21 24
28 34 35 35 30 28 23 20 18 16 18 15 17 16 14 13 12 13 13 12 14 13 15 14 15 18 19 20 20 19 24 11 20 23 22 23 20 18 18 18 21 22 23
28 34 36 36 30 27 23 20 17 17 17 16 14 14 16 14 11 11 13 13 13 12 15 16 16 18 18 19 22 28 28 10 14 21 12 16 16 18 20 20 22 21 23
27 31 33 32 29 26 23 18 16 14 13 13 12 13 18 14 10 11 12 12 16 15 16 14 14 18 19 22 26 35 26 14 25 16 15 13 14 16 20 21 21 21 21
35 29 33 26 25 24 21 15 13 14 12 12 12 11 8 10 10 11 10 10 11 14 16 16 17 18 17 19 22 29 17 9 11 9 10 13 11 14 16 16 19 22 21
46 23 19 22 22 24 25 18 10 11 11 9 10 9 14 11 7 11 6 2 15 16 15 14 16 16 19 15 15 17 12 9 13 19 19 9 9 9 13 15 16 16 21
42 42 25 18 18 17 16 7 11 7 8 8 4 8 7 12 6 10 2 11 13 19 14 10 10 10 10 10 6 8 5 13 5 20 21 9 7 3 5 11 11 12 14
52 55 40 35 30 24 16 12 14 7 7 10 2 7 8 9 11 8 5 3 14 9 8 7 5 7 7 10 17 14 10 9 5 15 10 19 10 9 6 4 7 12 16
49 49 48 51 26 42 32 18 12 11 13 3 15 11 13 13 16 16 14 12 9 11 8 8 11 13 16 14 14 10 10 18 20 14 14 19 15 13 12 13 14 13 14
49 48 38 44 46 47 44 30 20 14 13 18 23 22 19 17 20 24 16 14 18 20 17 22 17 17 17 18 22 22 19 13 21 27 23 25 24 21 18 16 17 19 19
53 47 44 53 53 50 41 34 24 16 17 20 20 23 20 13 20 24 25 25 19 16 16 19 16 21 27 24 19 15 20 14 7 14 31 26 26 28 30 35 23 23 25
50 50 45 53 51 37 22 37 35 27 24 25 19 17 10 4 2 12 25 25 29 21 20 18 18 20 21 16 11 5 2 6 10 5 17 25 29 26 25 26 22 32 32
57 51 55 49 40 35 20 19 34 32 27 20 19 18 6 2 6 9 15 19 19 13 14 13 9 9 9 8 10 7 4 10 5 7 0 12 16 20 17 17 21 26 34
52 51 64 51 40 36 24 24 28 29 27 28 15 14 16 9 6 10 13 12 8 11 8 2 4 6 4 5 8 12 16 15 16 15 17 22 14 12 18 21 14 10 23
58 57 47 60 50 44 35 32 29 29 20 24 22 23 21 13 12 15 12 13 11 8 6 3 7 8 10 10 8 9 12 13 16 18 22 17 17 15 13 10 1 6 11
60 57 54 49 53 45 38 19 27 24 25 26 30 29 24 15 19 17 15 12 10 7 5 8 7 7 4 5 7 13 3 3 5 5 17 17 9 9 13 13 3 6 9
63 62 58 50 44 44 34 26 27 33 30 29 32 22 14 14 20 20 17 14 9 8 8 10 9 8 6 5 5 2 2 3 19 6 16 4 11 7 7 11 8 9 10
66 64 58 51 46 43 39 32 28 34 29 32 27 20 21 22 19 18 10 10 12 11 9 10 12 10 7 6 8 4 5 10 3 1 7 15 17 11 13 10 7 5 8
68 65 62 55 54 48 47 44 39 35 20 26 33 29 26 26 18 17 13 12 10 11 10 13 14 16 17 15 12 3 10 8 17 17 14 10 16 14 19 9 9 8 13
73 72 64 61 54 54 52 55 41 35 29 30 27 27 31 33 27 25 20 15 18 14 15 14 16 17 16 19 19 17 14 15 18 12 13 7 12 14 9 7 3 5 5
Wind_Direction_500mb
130 127 123 121 126 127 124 126 125 129 130 128 129 126 127 132 136 133 126 108 109 118 119 99 102 87 83 84 107 106 98 102 108 115 114 114 111 111 106 98 109 113 113
136 132 131 129 127 128 124 122 122 123 122 125 128 134 134 135 137 134 125 99 110 117 116 100 95 91 90 90 110 118 108 102 105 106 106 103 110 116 123 117 121 118 119
145 135 139 137 139 132 130 129 127 126 126 129 135 141 139 132 131 136 141 124 114 116 120 102 89 103 107 106 107 118 116 112 124 118 97 105 115 102 110 108 117 116 118
144 144 143 139 143 134 131 127 122 122 122 125 143 147 147 142 132 137 144 130 115 112 126 131 109 118 120 113 102 120 121 127 129 138 148 100 106 113 122 117 124 120 121
135 149 144 143 146 143 140 138 134 133 134 140 149 152 165 153 146 150 153 138 119 116 112 118 114 119 125 119 109 111 120 138 127 144 171 169 121 118 126 126 129 123 122
147 153 150 137 147 155 148 145 144 139 132 133 141 153 161 154 148 148 157 151 132 117 114 116 116 120 128 134 119 121 121 137 81 90 154 147 118 135 139 131 127 123 119
159 164 157 149 155 154 148 151 145 137 133 133 146 150 151 155 159 162 157 148 135 124 125 123 126 123 124 126 127 129 133 98 110 54 145 176 132 151 147 141 138 130 129
159 169 167 157 162 154 155 157 156 146 124 139 148 155 157 157 153 157 150 151 148 141 138 130 127 125 125 121 124 132 142 108 104 77 106 132 150 156 155 148 141 137 138
167 166 167 162 164 161 160 158 151 152 143 150 145 148 149 141 149 162 161 165 151 160 144 141 133 130 122 109 113 117 141 103 114 112 114 118 141 156 160 149 144 144 143
174 163 169 169 169 163 161 147 149 153 148 139 149 156 148 133 122 171 168 169 173 168 156 136 133 138 129 114 122 132 131 127 131 95 118 133 131 157 165 151 150 146 149
156 155 166 164 163 158 150 145 135 134 142 153 160 160 131 164 148 143 161 153 190 184 168 138 131 136 134 129 133 149 148 123 123 208 109 121 141 166 157 150 151 156 152
163 180 169 160 159 157 151 126 107 128 116 149 146 147 186 198 131 136 142 282 203 197 190 168 148 143 147 137 164 162 146 167 161 152 178 145 158 156 154 152 153 156 154
179 180 185 189 178 155 177 166 149 158 181 173 206 155 219 194 203 157 62 304 194 188 193 193 200 197 175 174 223 193 177 144 161 171 182 199 179 156 137 160 152 159 170
174 168 175 207 195 213 188 197 185 209 174 203 205 171 225 242 213 209 311 295 132 155 179 141 147 161 180 285 260 266 234 194 135 213 247 227 239 214 227 239 190 193 187
186 190 195 206 215 193 185 196 206 205 212 204 233 221 221 233 233 234 227 199 181 178 231 213 249 251 257 272 262 262 271 257 236 224 237 223 227 229 242 247 241 229 207
184 198 210 198 187 168 187 189 201 203 209 199 216 231 252 246 241 244 237 213 205 198 222 235 234 250 243 274 279 277 277 257 242 232 239 220 217 240 258 261 248 249 240
190 192 192 182 181 199 215 199 208 206 208 244 213 246 240 263 258 238 234 229 222 216 215 237 254 256 259 271 280 270 277 285 266 247 245 243 246 257 267 267 258 246 242
188 196 188 189 196 213 226 215 199 196 203 214 210 259 221 10 290 218 213 208 223 242 241 249 253 262 260 265 272 296 232 258 311 327 252 263 279 280 275 266 268 242 236
193 191 182 196 211 214 199 184 200 198 214 200 202 224 208 325 28 139 178 186 210 220 237 253 268 270 288 290 284 289 231 240 242 280 170 253 278 295 287 282 291 242 232
200 199 198 201 211 204 212 190 196 213 222 200 200 209 192 245 289 163 130 142 187 162 129 168 341 285 277 277 301 316 320 273 258 256 253 255 263 268 284 277 284 268 249
195 193 198 193 209 213 203 193 210 214 206 187 193 198 202 225 225 178 143 119 148 154 160 280 301 291 289 288 297 339 329 294 255 273 237 236 268 259 248 253 298 343 306
195 196 190 198 202 212 218 202 208 189 188 184 198 200 235 212 197 203 188 156 166 194 258 248 252 249 297 273 278 315 6 323 238 314 194 224 256 253 253 257 259 319 345
191 192 190 192 204 209 197 196 187 195 201 200 196 198 230 216 189 180 187 192 205 240 223 234 248 252 253 253 296 342 126 347 343 299 214 262 249 255 234 253 250 258 328
193 192 196 205 203 207 200 206 209 208 200 190 205 218 205 195 188 188 199 188 203 225 213 207 223 237 268 258 213 241 252 279 330 278 218 290 252 240 212 229 207 236 275
198 199 201 207 210 204 210 215 213 214 199 209 219 221 202 200 198 202 200 193 224 227 227 213 242 261 254 242 236 239 182 198 226 240 264 70 203 185 201 224 199 259 295
199 202 203 202 210 217 214 218 213 210 199 207 217 215 222 226 219 219 210 212 221 223 228 235 252 263 261 251 245 243 237 238 237 230 214 142 112 160 191 217 260 321 356
Wind_Speed_850mb
34 33 35 35 33 38 42 41 41 41 42 39 42 39 36 35 32 29 25 20 17 18 15 12 12 16 15 15 19 22 23 30 34 32 31 32 33 36 36 27 28 32 32
35 32 33 36 35 38 41 40 41 37 38 36 34 30 27 27 24 23 17 14 14 16 12 11 10 13 14 19 24 24 25 29 29 28 26 26 27 25 31 29 26 31 32
33 36 33 35 34 35 34 34 33 30 28 26 24 23 23 21 18 16 12 13 11 10 6 9 10 12 18 25 26 28 28 22 23 28 25 22 21 21 26 19 23 29 30
37 35 33 35 33 36 34 31 28 25 22 18 19 19 19 17 17 17 16 11 8 7 6 10 12 16 20 24 29 30 29 24 25 21 22 18 21 17 16 17 25 27 28
32 32 34 36 35 34 29 24 22 21 18 16 15 15 15 15 15 15 14 9 7 10 14 16 18 19 22 26 28 27 27 17 16 14 21 17 14 19 18 21 27 27 26
34 33 39 37 33 30 27 23 19 16 15 14 15 15 18 16 14 14 10 8 10 13 15 17 20 20 22 25 27 30 24 10 22 2 23 40 17 17 22 23 22 24 25
28 29 34 37 32 28 26 20 17 15 14 14 15 17 17 15 12 11 12 13 14 13 16 15 18 19 19 22 24 30 23 8 16 30 30 26 17 15 16 20 23 21 24
28 34 35 35 30 28 23 20 18 16 18 15 17 16 14 13 12 13 13 12 14 13 15 14 15 18 19 20 20 19 24 11 20 23 22 23 20 18 18 18 21 22 23
28 34 36 36 30 27 23 20 17 17 17 16 14 14 16 14 11 11 13 13 13 12 15 16 16 18 18 19 22 28 28 10 14 21 12 16 16 18 20 20 22 21 23
27 31 33 32 29 26 23 18 16 14 13 13 12 13 18 14 10 11 12 12 16 15 16 14 14 18 19 22 26 35 26 14 25 16 15 13 14 16 20 21 21 21 21
35 29 33 26 25 24 21 15 13 14 12 12 12 11 8 10 10 11 10 10 11 14 16 16 17 18 17 19 22 29 17 9 11 9 10 13 11 14 16 16 19 22 21
46 23 19 22 22 24 25 18 10 11 11 9 10 9 14 11 7 11 6 2 15 16 15 14 16 16 19 15 15 17 12 9 13 19 19 9 9 9 13 15 16 16 21
42 42 25 18 18 17 16 7 11 7 8 8 4 8 7 12 6 10 2 11 13 19 14 10 10 10 10 10 6 8 5 13 5 20 21 9 7 3 5 11 11 12 14
52 55 40 35 30 24 16 12 14 7 7 10 2 7 8 9 11 8 5 3 14 9 8 7 5 7 7 10 17 14 10 9 5 15 10 19 10 9 6 4 7 12 16
49 49 48 51 26 42 32 18 12 11 13 3 15 11 13 13 16 16 14 12 9 11 8 8 11 13 16 14 14 10 10 18 20 14 14 19 15 13 12 13 14 13 14
49 48 38 44 46 47 44 30 20 14 13 18 23 22 19 17 20 24 16 14 18 20 17 22 17 17 17 18 22 22 19 13 21 27 23 25 24 21 18 16 17 19 19
53 47 44 53 53 50 41 34 24 16 17 20 20 23 20 13 20 24 25 25 19 16 16 19 16 21 27 24 19 15 20 14 7 14 31 26 26 28 30 35 23 23 25
50 50 45 53 51 37 22 37 35 27 24 25 19 17 10 4 2 12 25 25 29 21 20 18 18 20 21 16 11 5 2 6 10 5 17 25 29 26 25 26 22 32 32
57 51 55 49 40 35 20 19 34 32 27 20 19 18 6 2 6 9 15 19 19 13 14 13 9 9 9 8 10 7 4 10 5 7 0 12 16 20 17 17 21 26 34
52 51 64 51 40 36 24 24 28 29 27 28 15 14 16 9 6 10 13 12 8 11 8 2 4 6 4 5 8 12 16 15 16 15 17 22 14 12 18 21 14 10 23
58 57 47 60 50 44 35 32 29 29 20 24 22 23 21 13 12 15 12 13 11 8 6 3 7 8 10 10 8 9 12 13 16 18 22 17 17 15 13 10 1 6 11
60 57 54 49 53 45 38 19 27 24 25 26 30 29 24 15 19 17 15 12 10 7 5 8 7 7 4 5 7 13 3 3 5 5 17 17 9 9 13 13 3 6 9
63 62 58 50 44 44 34 26 27 33 30 29 32 22 14 14 20 20 17 14 9 8 8 10 9 8 6 5 5 2 2 3 19 6 16 4 11 7 7 11 8 9 10
66 64 58 51 46 43 39 32 28 34 29 32 27 20 21 22 19 18 10 10 12 11 9 10 12 10 7 6 8 4 5 10 3 1 7 15 17 11 13 10 7 5 8
68 65 62 55 54 48 47 44 39 35 20 26 33 29 26 26 18 17 13 12 10 11 10 13 14 16 17 15 12 3 10 8 17 17 14 10 16 14 19 9 9 8 13
73 72 64 61 54 54 52 55 41 35 29 30 27 27 31 33 27 25 20 15 18 14 15 14 16 17 16 19 19 17 14 15 18 12 13 7 12 14 9 7 3 5 5
Wind_Direction_850mb
130 127 123 121 126 127 124 126 125 129 130 128 129 126 127 132 136 133 126 108 109 118 119 99 102 87 83 84 107 106 98 102 108 115 114 114 111 111 106 98 109 113 113
136 132 131 129 127 128 124 122 122 123 122 125 128 134 134 135 137 134 125 99 110 117 116 100 95 91 90 90 110 118 108 102 105 106 106 103 110 116 123 117 121 118 119
145 135 139 137 139 132 130 129 127 126 126 129 135 141 139 132 131 136 141 124 114 116 120 102 89 103 107 106 107 118 116 112 124 118 97 105 115 102 110 108 117 116 118
144 144 143 139 143 134 131 127 122 122 122 125 143 147 147 142 132 137 144 130 115 112 126 131 109 118 120 113 102 120 121 127 129 138 148 100 106 113 122 117 124 120 121
135 149 144 143 146 143 140 138 134 133 134 140 149 152 165 153 146 150 153 138 119 116 112 118 114 119 125 119 109 111 120 138 127 144 171 169 121 118 126 126 129 123 122
147 153 150 137 147 155 148 145 144 139 132 133 141 153 161 154 148 148 157 151 132 117 114 116 116 120 128 134 119 121 121 137 81 90 154 147 118 135 139 131 127 123 119
159 164 157 149 155 154 148 151 145 137 133 133 146 150 151 155 159 162 157 148 135 124 125 123 126 123 124 126 127 129 133 98 110 54 145 176 132 151 147 141 138 130 129
159 169 167 157 162 154 155 157 156 146 124 139 148 155 157 157 153 157 150 151 148 141 138 130 127 125 125 121 124 132 142 108 104 77 106 132 150 156 155 148 141 137 138
167 166 167 162 164 161 160 158 151 152 143 150 145 148 149 141 149 162 161 165 151 160 144 141 133 130 122 109 113 117 141 103 114 112 114 118 141 156 160 149 144 144 143
174 163 169 169 169 163 161 147 149 153 148 139 149 156 148 133 122 171 168 169 173 168 156 136 133 138 129 114 122 132 131 127 131 95 118 133 131 157 165 151 150 146 149
156 155 166 164 163 158 150 145 135 134 142 153 160 160 131 164 148 143 161 153 190 184 168 138 131 136 134 129 133 149 148 123 123 208 109 121 141 166 157 150 151 156 152
163 180 169 160 159 157 151 126 107 128 116 149 146 147 186 198 131 136 142 282 203 197 190 168 148 143 147 137 164 162 146 167 161 152 178 145 158 156 154 152 153 156 154
179 180 185 189 178 155 177 166 149 158 181 173 206 155 219 194 203 157 62 304 194 188 193 193 200 197 175 174 223 193 177 144 161 171 182 199 179 156 137 160 152 159 170
174 168 175 207 195 213 188 197 185 209 174 203 205 171 225 242 213 209 311 295 132 155 179 141 147 161 180 285 260 266 234 194 135 213 247 227 239 214 227 239 190 193 187
186 190 195 206 215 193 185 196 206 205 212 204 233 221 221 233 233 234 227 199 181 178 231 213 249 251 257 272 262 262 271 257 236 224 237 223 227 229 242 247 241 229 207
184 198 210 198 187 168 187 189 201 203 209 199 216 231 252 246 241 244 237 213 205 198 222 235 234 250 243 274 279 277 277 257 242 232 239 220 217 240 258 261 248 249 240
190 192 192 182 181 199 215 199 208 206 208 244 213 246 240 263 258 238 234 229 222 216 215 237 254 256 259 271 280 270 277 285 266 247 245 243 246 257 267 267 258 246 242
188 196 188 189 196 213 226 215 199 196 203 214 210 259 221 10 290 218 213 208 223 242 241 249 253 262 260 265 272 296 232 258 311 327 252 263 279 280 275 266 268 242 236
193 191 182 196 211 214 199 184 200 198 214 200 202 224 208 325 28 139 178 186 210 220 237 253 268 270 288 290 284 289 231 240 242 280 170 253 278 295 287 282 291 242 232
200 199 198 201 211 204 212 190 196 213 222 200 200 209 192 245 289 163 130 142 187 162 129 168 341 285 277 277 301 316 320 273 258 256 253 255 263 268 284 277 284 268 249
195 193 198 193 209 213 203 193 210 214 206 187 193 198 202 225 225 178 143 119 148 154 160 280 301 291 289 288 297 339 329 294 255 273 237 236 268 259 248 253 298 343 306
195 196 190 198 202 212 218 202 208 189 188 184 198 200 235 212 197 203 188 156 166 194 258 248 252 249 297 273 278 315 6 323 238 314 194 224 256 253 253 257 259 319 345
191 192 190 192 204 209 197 196 187 195 201 200 196 198 230 216 189 180 187 192 205 240 223 234 248 252 253 253 296 342 126 347 343 299 214 262 249 255 234 253 250 258 328
193 192 196 205 203 207 200 206 209 208 200 190 205 218 205 195 188 188 199 188 203 225 213 207 223 237 268 258 213 241 252 279 330 278 218 290 252 240 212 229 207 236 275
198 199 201 207 210 204 210 215 213 214 199 209 219 221 202 200 198 202 200 193 224 227 227 213 242 261 254 242 236 239 182 198 226 240 264 70 203 185 201 224 199 259 295
199 202 203 202 210 217 214 218 213 210 199 207 217 215 222 226 219 219 210 212 221 223 228 235 252 263 261 251 245 243 237 238 237 230 214 142 112 160 191 217 260 321 356